Theta_e
306 308 306 306 305 304 306 306 305 304 304 304 303 303 303 302 301 301 302 302 301 302 301 303 304 305 304 306 310 315 317 316 318 317 319 320 320 321 321 320 319 319 319 318 318 320 320
306 306 306 306 305 304 305 305 305 304 304 304 302 302 302 302 302 303 302 302 301 302 301 302 303 304 305 306 310 313 314 315 319 317 319 320 317 320 320 320 320 318 319 318 318 319 319
306 305 306 304 304 305 305 305 305 304 304 304 304 303 301 302 303 303 302 302 302 302 301 301 303 304 305 305 311 313 314 315 317 316 317 320 318 319 319 319 319 319 319 319 319 318 319
305 305 305 304 304 305 304 304 304 304 304 304 304 304 302 301 303 301 302 302 302 302 302 301 301 303 303 303 312 313 313 314 316 317 318 320 319 318 319 317 318 319 319 321 318 319 319
304 305 304 303 304 304 305 304 304 304 305 304 303 304 303 303 301 301 301 302 302 302 303 301 302 304 305 307 309 313 313 315 317 317 319 318 319 318 317 319 319 319 317 317 318 318 318
303 303 303 303 303 305 304 303 304 304 304 306 303 302 304 301 298 301 302 301 300 300 301 302 302 304 306 310 312 313 313 314 318 318 318 317 318 320 318 318 316 318 316 317 316 317 319
301 303 303 302 303 303 303 304 303 305 305 306 302 303 303 303 301 301 301 301 302 302 302 302 302 305 309 311 312 313 313 312 318 317 318 317 320 321 319 317 316 317 316 315 316 315 316
300 303 302 301 303 303 303 303 304 305 304 303 302 301 302 303 303 301 301 301 301 302 302 302 302 303 305 311 313 313 313 316 316 318 317 318 319 318 318 318 317 317 316 316 317 315 316
299 300 301 301 301 302 303 303 304 304 303 302 302 301 302 302 302 303 301 300 301 301 304 305 305 306 310 312 313 313 313 314 316 318 318 318 317 317 318 318 318 318 317 319 318 315 313
299 299 297 299 300 301 303 303 304 302 302 303 303 302 300 300 300 301 301 300 300 302 308 309 308 310 311 313 314 314 313 312 310 316 318 318 318 317 317 318 318 320 316 317 316 318 319
300 299 297 298 297 300 302 304 304 302 302 303 303 304 302 300 300 302 301 300 301 303 312 309 308 310 311 312 313 314 311 315 312 311 314 316 319 319 318 318 318 317 314 314 313 316 317
300 298 296 296 296 295 300 302 302 303 302 303 304 304 304 304 301 301 302 302 302 309 313 310 310 312 312 313 314 314 315 313 313 314 313 312 313 316 316 313 316 311 312 311 312 315 322
300 299 296 295 294 294 297 303 302 303 302 302 303 303 305 305 304 304 302 304 311 314 308 311 313 313 313 314 314 314 316 316 317 316 315 312 312 313 312 312 311 314 317 321 322 322 322
300 299 297 296 294 293 293 297 304 304 303 304 303 303 306 306 305 304 304 307 315 312 311 311 313 313 315 314 314 314 316 317 314 316 317 319 318 313 312 313 314 316 318 321 321 316 314
299 299 298 298 295 294 293 293 299 305 304 304 305 306 306 306 306 305 306 312 312 312 312 313 312 314 314 314 315 315 314 316 313 313 318 316 316 310 310 310 313 313 318 309 313 309 315
298 299 300 300 300 295 294 294 294 302 304 305 306 306 307 308 307 307 312 313 313 310 310 310 312 312 313 313 315 315 316 312 312 310 310 312 316 311 310 310 310 313 310 316 315 318 318
298 299 300 301 301 302 295 294 294 295 305 304 307 308 308 308 308 310 310 311 311 310 309 310 311 311 312 313 313 313 312 311 311 310 309 311 314 313 311 313 314 312 313 310 312 311 315
298 300 300 301 301 301 302 294 294 294 302 304 306 315 308 308 312 311 312 309 308 311 310 309 309 310 311 310 312 312 311 312 309 310 312 310 313 315 313 309 309 310 313 311 315 313 310
299 301 300 301 300 299 299 301 294 294 300 304 304 307 309 309 314 313 310 310 310 310 309 309 309 309 309 310 312 311 310 309 309 310 312 310 312 314 312 311 309 311 311 310 308 310 313
300 301 301 300 300 299 298 299 296 294 298 304 305 314 309 308 306 311 311 311 311 309 309 307 308 308 309 310 309 310 311 310 308 310 308 309 309 312 312 312 312 312 311 309 311 314 313
298 301 301 300 299 299 298 298 298 293 295 304 305 305 304 313 310 308 308 310 311 312 310 308 309 309 309 310 310 311 311 310 310 310 309 311 313 309 310 309 310 311 311 310 310 312 314
297 298 300 299 298 299 298 298 297 293 294 303 304 303 304 305 304 307 307 311 311 311 311 310 310 310 311 311 310 311 311 311 311 310 310 309 313 309 311 309 309 310 310 311 310 311 310
296 300 300 299 297 299 298 297 294 294 294 301 301 301 302 304 306 308 310 310 310 310 311 311 310 312 312 312 311 310 310 310 310 311 310 311 311 312 313 309 310 313 312 311 311 310 311
299 300 298 297 297 299 299 297 296 295 292 298 298 300 302 308 306 308 307 307 310 311 312 311 311 312 310 308 308 309 309 309 310 309 310 311 311 311 313 311 316 312 310 311 311 310 310
299 298 298 297 297 298 300 298 297 295 295 293 297 299 300 304 304 304 305 307 308 309 311 311 311 311 310 310 312 312 312 311 311 310 310 310 312 313 312 311 312 312 310 311 312 314 310
298 298 297 297 297 296 297 299 298 297 295 294 293 294 299 300 303 302 303 304 310 310 310 311 311 311 311 311 313 313 314 312 313 312 311 310 311 312 312 312 315 315 313 311 313 318 312
299 299 298 297 297 297 296 299 299 298 296 294 294 294 294 297 298 300 302 305 306 306 309 308 310 311 310 313 313 312 313 310 313 311 313 312 312 313 313 312 312 311 313 314 320 318 311
301 300 299 298 297 297 297 296 298 299 297 296 295 294 295 295 294 295 299 301 305 307 309 307 310 309 310 313 313 313 312 311 312 311 311 312 312 314 312 313 312 310 313 317 315 312 313
301 299 299 298 296 297 297 296 296 298 298 297 296 295 295 295 296 295 294 294 294 300 301 306 308 308 310 313 311 311 311 309 312 314 309 312 312 312 312 312 310 310 312 312 312 311 311
Wind_Speed
23 22 24 25 27 28 25 28 28 29 27 27 25 22 20 17 14 13 12 11 10 10 10 10 11 10 7 7 16 12 12 18 26 24 25 24 30 23 17 15 13 14 7 9 8 10 8
23 23 25 25 28 25 27 28 27 30 29 27 26 20 18 17 14 12 12 12 9 9 8 9 7 7 7 11 11 18 7 7 26 28 27 24 25 19 18 13 15 15 5 15 11 8 6
22 24 25 25 28 23 28 28 29 28 28 26 24 24 20 17 11 12 11 6 6 7 8 6 6 7 11 16 13 20 25 11 17 28 29 23 18 19 12 8 10 8 15 7 11 12 9
21 24 26 27 27 27 28 27 27 29 29 28 28 23 21 14 13 12 7 7 10 7 8 6 9 8 9 11 14 7 17 18 14 27 27 19 19 18 11 7 11 11 7 11 12 16 6
23 24 25 28 27 25 28 26 26 29 32 30 28 23 21 13 16 7 5 8 10 14 8 6 6 7 5 13 16 12 17 14 18 28 25 20 24 21 7 13 8 14 11 17 5 10 11
24 23 27 28 24 27 26 24 29 27 30 31 30 24 12 9 7 5 4 8 5 4 7 5 5 5 9 15 14 13 11 12 25 27 22 20 15 13 13 14 15 17 17 13 14 5 9
26 24 25 27 24 26 26 28 26 30 32 31 33 26 15 10 4 5 2 2 2 3 6 4 5 4 9 11 15 14 6 13 23 24 10 23 7 16 21 18 3 10 16 10 9 4 5
27 24 26 26 25 26 25 25 28 28 30 32 29 28 17 5 2 6 1 2 1 2 3 5 5 11 11 8 6 11 12 12 14 19 14 9 15 14 13 12 9 14 14 10 5 4 4
28 25 25 26 24 23 25 25 27 26 26 31 31 26 20 13 6 4 7 2 3 1 3 4 3 5 2 10 9 8 3 5 18 18 19 15 12 14 14 12 11 9 12 9 3 5 1
26 25 26 26 25 24 25 25 25 22 22 24 28 27 21 10 15 13 8 4 2 1 2 4 1 0 6 8 6 4 6 6 5 6 10 8 2 17 18 15 13 9 4 7 5 4 4
25 24 26 27 27 25 24 25 23 19 17 18 22 24 22 18 10 13 8 4 1 4 3 8 4 3 8 5 12 6 9 5 9 6 4 3 7 18 18 19 13 4 7 8 3 2 2
24 24 25 26 28 26 24 22 19 16 12 13 17 17 15 13 12 10 8 4 0 3 8 4 6 6 5 4 3 7 5 13 9 8 11 4 6 3 3 9 7 15 10 7 3 1 3
23 24 25 26 27 29 24 21 19 16 12 11 13 13 14 13 6 4 4 2 2 6 3 6 4 5 6 4 6 5 4 5 3 4 3 3 3 3 3 10 6 6 10 3 3 3 2
22 22 24 25 25 28 29 23 19 20 16 15 12 8 12 13 9 6 3 3 9 6 5 2 4 12 5 4 5 3 7 3 4 3 3 3 4 4 2 2 5 5 4 2 4 5 3
20 21 22 26 25 26 28 28 21 21 20 16 9 6 13 14 9 4 1 7 3 2 2 6 8 7 3 6 5 4 3 2 2 2 2 4 4 3 6 6 4 5 4 1 4 1 2
19 21 21 25 27 27 27 30 28 21 20 15 7 2 16 14 10 6 2 5 1 1 2 2 2 1 4 3 3 4 3 1 3 1 2 3 5 2 4 1 8 1 7 2 0 4 4
17 19 21 23 27 30 29 28 31 26 21 14 6 2 12 10 10 8 4 3 3 3 2 3 2 2 4 3 2 2 2 2 1 2 3 5 2 2 3 3 6 4 3 2 2 1 2
17 19 19 23 26 30 31 31 29 31 21 14 3 1 9 5 3 3 2 2 4 3 2 2 3 3 3 2 3 2 3 1 2 3 3 2 4 4 2 2 3 2 3 5 3 5 0
15 18 19 22 26 28 32 31 29 28 24 16 5 2 8 2 3 2 1 1 2 2 3 1 2 0 1 3 2 2 2 2 3 1 5 5 3 4 2 1 1 5 6 4 4 2 5
15 16 19 22 27 29 31 32 29 25 22 12 4 1 4 7 5 2 2 1 1 1 1 2 3 2 4 2 3 4 4 2 0 2 4 3 3 1 3 3 4 4 9 10 5 4 5
15 15 19 21 23 28 31 32 27 23 20 9 5 2 2 1 3 3 0 0 1 1 0 1 2 2 3 3 3 4 3 3 2 3 2 1 2 1 1 1 3 3 6 13 10 9 6
15 16 17 20 21 26 28 29 26 20 18 6 4 3 3 1 1 1 1 1 0 0 1 1 2 5 3 2 2 6 6 4 3 4 3 1 3 1 2 1 6 8 11 12 15 15 14
14 14 17 21 21 20 23 25 24 20 16 6 4 3 2 0 2 3 3 2 1 1 1 2 3 3 3 1 1 1 5 6 5 7 6 4 5 2 1 0 4 8 17 19 11 10 15
12 15 19 25 17 14 18 23 21 21 16 9 7 3 2 1 3 1 1 1 1 1 1 1 0 0 5 12 11 8 8 8 7 3 6 6 5 2 1 2 4 2 3 5 18 11 16
12 16 18 20 16 13 14 18 19 19 18 10 7 3 2 3 3 4 2 3 4 1 2 1 0 2 13 3 3 3 2 2 3 3 4 4 4 2 2 4 9 5 4 6 6 6 17
10 14 17 18 16 14 13 15 17 18 18 12 10 6 1 3 1 1 3 2 2 3 2 2 2 6 6 1 2 4 4 3 4 3 3 4 3 4 3 3 4 3 5 6 4 4 5
7 13 16 14 14 14 14 13 16 13 16 14 10 9 4 3 3 4 3 3 2 2 1 1 4 4 4 3 4 4 4 1 5 6 5 5 3 9 7 5 6 4 7 5 3 4 1
10 13 16 12 12 15 16 13 15 10 13 13 11 9 9 5 13 11 10 5 4 4 2 2 3 3 3 6 5 4 5 6 4 5 6 9 6 4 6 5 7 7 5 4 5 4 5
11 16 16 13 12 14 16 12 15 8 10 12 11 12 13 9 11 19 23 22 20 16 5 3 3 1 5 5 3 2 3 3 5 4 3 7 6 4 7 4 1 9 2 5 3 4 5
Wind_Direction
348 344 345 340 337 338 339 333 333 332 327 326 324 320 314 313 312 307 311 311 304 295 279 258 242 237 249 218 219 188 166 207 205 194 192 186 190 191 194 193 190 217 197 204 199 179 165
349 346 344 339 341 341 339 336 335 333 333 331 330 324 317 309 301 311 304 305 300 295 277 259 232 214 221 236 215 215 177 127 193 187 192 190 196 185 201 194 193 199 192 204 201 198 179
349 345 340 348 343 345 339 343 337 337 334 329 323 317 311 313 299 305 292 304 304 295 292 249 248 214 235 228 196 215 225 233 191 185 193 191 189 183 173 169 177 176 206 201 211 222 228
354 350 346 347 347 345 346 346 343 335 336 333 324 319 308 306 293 300 284 297 293 304 295 236 211 213 250 234 183 200 204 225 202 190 193 184 184 181 169 162 166 181 189 200 221 211 205
355 350 346 349 347 352 348 343 343 343 341 342 340 326 302 299 298 273 283 306 303 280 251 201 209 207 246 189 205 192 186 199 191 187 190 181 178 191 152 163 157 191 203 211 194 204 213
356 351 350 352 351 350 343 354 347 346 348 344 345 344 320 288 300 240 286 329 3 102 149 165 179 210 242 185 188 180 177 184 165 175 180 192 178 176 181 185 198 189 204 209 215 170 217
357 352 351 349 355 347 356 351 349 353 354 352 358 358 347 292 259 239 301 32 63 91 164 216 198 254 125 161 175 192 173 200 170 166 171 194 182 187 186 198 244 171 194 197 217 138 222
359 354 354 354 356 353 354 353 1 0 356 2 5 7 9 22 193 238 290 36 122 126 214 263 297 250 280 178 133 173 203 163 162 170 167 172 210 192 172 177 179 178 180 191 129 161 234
1 359 354 357 356 351 350 357 5 3 8 11 13 16 29 37 39 175 159 108 153 132 229 63 163 256 249 157 141 151 154 112 173 173 177 177 183 164 175 174 160 179 183 165 151 161 170
2 0 358 360 357 359 353 1 7 9 21 21 19 22 40 54 62 93 97 127 149 305 222 94 279 71 132 131 71 81 68 106 43 137 169 157 157 175 181 187 179 166 124 131 134 209 232
2 2 358 359 1 358 357 359 5 15 23 27 25 27 39 53 84 76 92 114 107 323 79 0 346 79 98 67 124 42 167 163 125 135 170 92 182 178 184 188 197 124 145 113 99 130 290
360 1 359 359 0 3 3 359 3 8 10 14 23 23 21 43 60 82 92 111 242 253 37 36 341 113 78 32 73 121 129 88 90 86 69 57 49 34 75 73 179 138 110 80 92 214 231
353 1 0 358 1 4 4 4 357 355 348 339 353 0 7 20 9 333 325 314 249 40 304 14 60 113 94 81 60 48 117 81 120 125 106 57 35 90 85 77 22 190 156 141 187 202 252
346 1 358 360 0 2 7 1 2 347 345 348 347 4 13 11 7 9 344 229 55 30 71 169 97 92 56 48 46 14 120 72 59 97 115 86 93 12 33 127 156 143 190 228 188 187 150
344 357 0 358 1 2 3 5 1 356 340 348 358 44 17 11 20 36 62 50 44 4 74 137 123 86 90 77 111 96 51 95 77 349 82 123 88 121 202 154 173 155 200 49 101 93 246
344 352 359 354 359 4 3 360 2 0 350 352 14 73 12 16 36 45 42 90 67 327 18 347 67 16 148 114 146 138 167 119 117 2 292 131 114 102 156 135 52 274 133 143 249 178 223
341 351 355 357 0 358 2 3 356 1 355 349 24 90 4 11 46 62 60 41 28 9 3 6 90 106 103 121 96 100 95 122 182 91 96 127 94 131 185 205 169 141 179 76 112 296 268
342 347 350 353 0 360 359 0 0 355 360 355 17 58 359 34 53 49 47 323 338 344 358 93 102 97 134 131 123 117 123 91 142 154 106 66 109 140 126 35 322 286 227 210 230 181 145
338 341 348 351 355 358 355 356 357 358 358 358 354 339 24 135 101 95 129 187 240 343 15 49 105 23 150 135 130 81 102 26 157 138 156 170 119 117 132 228 179 223 198 214 106 63 197
329 338 348 351 348 352 349 349 353 357 354 355 341 294 25 62 80 84 132 58 170 181 20 53 111 139 141 118 37 140 138 51 215 50 99 113 127 247 189 93 125 197 200 199 184 188 181
319 326 334 341 344 346 345 344 349 355 358 355 9 48 345 82 82 101 185 155 294 187 54 99 129 185 150 136 134 146 145 126 98 145 72 36 112 121 219 149 187 213 200 198 208 208 211
311 320 330 340 345 340 344 342 344 357 1 15 26 11 338 119 119 172 177 157 276 148 279 141 174 161 189 171 209 180 167 191 175 162 169 139 134 145 210 165 230 247 234 220 222 229 246
318 332 333 335 342 341 347 349 352 2 13 52 47 20 344 277 187 200 162 157 166 235 190 246 170 207 168 113 203 267 177 172 167 171 170 160 145 169 224 304 280 256 229 212 208 209 219
325 334 339 350 349 348 349 355 0 5 16 32 35 21 329 245 262 204 162 250 196 353 307 188 287 244 128 98 100 95 97 107 138 122 171 156 130 131 307 275 233 53 145 201 217 221 217
342 356 353 350 355 347 351 353 359 4 11 14 26 51 337 284 287 269 262 268 286 242 184 249 264 155 157 131 123 137 128 159 97 71 184 180 151 150 253 252 296 267 184 167 184 210 216
358 358 353 349 350 346 339 338 353 2 6 7 6 9 330 302 245 303 278 272 243 205 188 187 170 167 170 141 163 212 206 187 184 167 51 153 236 209 166 256 252 50 138 181 220 153 165
350 346 338 342 352 349 329 335 332 348 358 0 360 5 347 289 273 239 247 254 254 263 260 164 164 168 184 198 204 209 220 219 189 195 173 170 189 219 222 259 281 214 156 141 195 127 212
304 317 323 327 337 332 331 303 314 336 343 349 347 353 2 298 277 251 244 249 277 242 233 107 154 193 157 204 219 190 220 200 205 189 181 184 188 191 212 221 254 150 140 210 113 134 270
317 319 313 326 334 331 337 313 301 325 322 330 330 336 330 298 271 280 271 254 245 244 268 246 312 257 203 201 210 195 181 181 188 210 188 203 207 191 211 221 43 193 249 166 154 289 258